Driggs, ID

9:44 AM MDT on October 19, 2019 (GMT -0600)
Driggs

Weather History for KDIJ - September, 2019

Change the Weather History Date:

Tuesday, September 17, 2019

  Actual Average (KJAC) Record (KJAC)
Temperature  
Mean Temperature 50 °F -  
Max Temperature 63 °F 68 °F 82 °F (1979)
Min Temperature 36 °F 30 °F 18 °F (1971)
Degree Days  
Heating Degree Days 15    
Moisture  
Dew Point 36 °F    
Average Humidity 70    
Maximum Humidity 93    
Minimum Humidity 41    
Precipitation  
Precipitation 0.09 in - - ()
Sea Level Pressure  
Sea Level Pressure 30.01 in    
Wind  
Wind Speed 10 mph (South)    
Max Wind Speed 15 mph    
Max Gust Speed 18 mph    
Visibility 10 miles    
Events Rain    
Averages and records for this station are not official NWS values.
T = Trace of Precipitation, MM = Missing Value Source: NWS Daily Summary

Daily Weather History Graph

Daily Weather History Graph

Search for Another Location

Airport or City:

Astronomy

Sep. 17, 2019 Rise Set
Actual Time 7:05 AM MDT 7:31 PM MDT
Civil Twilight 6:36 AM MDT 7:59 PM MDT
Nautical Twilight 6:02 AM MDT 8:33 PM MDT
Astronomical Twilight 5:27 AM MDT 9:08 PM MDT
Moon 9:30 PM MDT (9/17) 10:18 AM MDT (9/17)
Length of Visible Light 13h 23m
Length of Day
12h 25m
Waning Gibbous, 89% of the Moon is Illuminated
Sep 17
Waning Gibbous
Sep 21
Last Quarter
Sep 28
New
Oct 5
First Quarter
Oct 13
Full

Hourly Weather History & Observations

Time (MDT) Temp. Windchill Dew Point Humidity Pressure Visibility Wind Dir Wind Speed Gust Speed Precip Events Conditions
12:56 AM 61.0 °F - 37.0 °F 41% 29.64 in 10.0 mi SSE 15.0 mph 18.4 mph N/A   Overcast
1:56 AM 57.0 °F - 36.0 °F 45% 29.72 in 10.0 mi WSW 10.4 mph - N/A   Mostly Cloudy
2:56 AM 52.0 °F - 36.0 °F 54% 29.78 in 10.0 mi SSE 9.2 mph - 0.00 in   Mostly Cloudy
3:56 AM 48.0 °F - 37.9 °F 68% 29.84 in 10.0 mi SSE 12.7 mph - 0.00 in Rain Light Rain
4:56 AM 46.9 °F - 37.0 °F 68% 29.86 in 10.0 mi South 10.4 mph - 0.00 in   Overcast
5:56 AM 46.0 °F 41.9 °F 37.9 °F 73% 29.85 in 10.0 mi South 8.1 mph - 0.00 in   Overcast
6:56 AM 46.0 °F 42.5 °F 36.0 °F 68% 29.89 in 10.0 mi South 6.9 mph - N/A   Overcast
7:56 AM 45.0 °F 39.7 °F 36.0 °F 71% 29.95 in 10.0 mi SSW 10.4 mph - 0.00 in Rain Light Rain
8:56 AM 41.0 °F 36.4 °F 37.9 °F 89% 29.99 in 10.0 mi SSE 6.9 mph - 0.01 in Rain Light Rain
9:53 AM 39.2 °F 33.0 °F 37.4 °F 93% 30.09 in 9.0 mi South 9.2 mph - 0.02 in Rain Rain
9:56 AM 39.9 °F 33.4 °F 37.9 °F 93% 30.01 in 8.0 mi South 10.4 mph - 0.03 in Rain Rain
10:56 AM 41.0 °F 35.2 °F 39.0 °F 93% 30.02 in 10.0 mi SSE 9.2 mph - 0.04 in Rain Light Rain
11:30 AM 46.4 °F 42.4 °F 39.2 °F 76% 30.10 in 10.0 mi South 8.1 mph - 0.00 in   Overcast
11:52 AM 44.6 °F 39.2 °F 37.4 °F 76% 30.10 in 10.0 mi SSW 10.4 mph - 0.00 in   Overcast
11:56 AM 44.1 °F 38.1 °F 37.9 °F 79% 30.00 in 10.0 mi SSW 11.5 mph - 0.00 in   Overcast
12:46 PM 44.6 °F 38.8 °F 37.4 °F 76% 30.10 in 10.0 mi SSW 11.5 mph 18.4 mph 0.00 in Rain Light Rain
12:56 PM 43.0 °F 37.7 °F 39.9 °F 89% 30.01 in 8.0 mi SSW 9.2 mph - 0.01 in Rain Light Rain
1:13 PM 44.6 °F 38.4 °F 37.4 °F 76% 30.11 in 10.0 mi SW 12.7 mph - 0.00 in   Overcast
1:56 PM 46.9 °F - 34.0 °F 61% 30.04 in 10.0 mi SW 10.4 mph - 0.00 in   Overcast
2:56 PM 48.0 °F - 35.1 °F 61% 30.07 in 10.0 mi SSW 8.1 mph - 0.00 in Rain Light Rain
3:56 PM 48.9 °F - 34.0 °F 56% 30.07 in 10.0 mi SW 9.2 mph - 0.00 in   Overcast
4:56 PM 50.0 °F - 34.0 °F 54% 30.06 in 10.0 mi SW 13.8 mph - N/A   Overcast
5:56 PM 52.0 °F - 33.1 °F 49% 30.07 in 10.0 mi SSW 10.4 mph - N/A   Mostly Cloudy
6:56 PM 51.1 °F - 32.0 °F 48% 30.09 in 10.0 mi SSW 8.1 mph - N/A   Overcast
7:56 PM 45.0 °F 40.1 °F 32.0 °F 60% 30.12 in 10.0 mi South 9.2 mph - N/A   Partly Cloudy
8:56 PM 39.9 °F 35.1 °F 33.1 °F 77% 30.16 in 10.0 mi SE 6.9 mph - N/A   Clear
9:56 PM 41.0 °F 36.4 °F 32.0 °F 70% 30.15 in 10.0 mi East 6.9 mph - N/A   Clear
10:56 PM 39.0 °F 32.8 °F 33.1 °F 79% 30.15 in 10.0 mi East 9.2 mph - N/A   Clear
11:56 PM 36.0 °F - 32.0 °F 86% 30.15 in 10.0 mi Calm Calm - N/A   Clear